Location: ??????
(56.0120°N, 39.1740°E)
Time: 05:30:08
(UTC+00:00)

Cosmos 921 Rocket - Pass Details

Date: 14 April 2026
Orbit: 563 x 620 km, 75.8° (Epoch: 10 May)

Event Time Altitude Azimuth Distance (km) Brightness Sun altitude
Rises 19:13:03 0° 337° (NNW) 2,912 8.1 -19.0°
Reaches altitude 10° 19:15:26 10° 345° (NNW) 1,999 6.7 -19.2°
Maximum altitude 19:19:39 40° 56° (NE) 916 3.9 -19.5°
Enters shadow 19:20:56 32° 95° (E) 1,060 3.9 -19.6°
